STARLINK-32356, 60921

Orbit data source: Space-Track

STARLINK-32356, 60921 is a payload satellite owned by SpaceX/Seattle (US) in LEO that was launched on Sat, 31 Aug 2024 UTC via an FALCON 9 launch vehicle from the Air Force Eastern Test Range (AFETR). Payload-class satellites include a variety of spacecraft equipped with specific instruments for various scientific and technological missions. These include communications satellites like Starlink; space stations such as the ISS; scientific satellites like the Hubble; Earth observation satellites from companies like Planet Labs, Umbra, and HawkEye 360; GPS; miniature CubeSats for education and research; and military/defense satellites.

Loading next visibility...
Identifier
60921, 2024-154U
Orbit
LEO
Country
Flag of USUS
Related business
Manufacturer
SpaceX/Seattle
Mission
Operational Commercial Communications
Bus & Motor
STARLINK V2M, Unknown motor
Mass
730 kg wet, ~700 kg dry
Launch date (UTC)
2024-08-31 (2 years ago)
Launch vehicle
FALCON 9
Launch site
Air Force Eastern Test Range (AFETR)
Object type
Payload
Rocket body
Debris
Shape & HBR
Box + 2 Pan, 17.7 m
Radar Cross Section
33.884 m², Large (>1 m²)

Expand to show TLE details & history
Last TLE update: 1 day ago

TLE from 1 day ago
0 STARLINK-32356
1 60921U 24154U   26175.17310100  .00000664  00000-0  33170-4 0  9992
2 60921  53.1593 148.8394 0001193  86.5263 273.5875 15.31699296102659
Epoch: 2026-06-24T04:09Z
TLE epoch observation values (Epoch: 2026-06-24T04:09:15.926Z)
Latitude
-0.00001°
Longitude
174.18892°
Altitude
471.591 km
Speed
7.631 km/s
True Right ascension
09h 55m 21s
True Declination
0° 00' 00"
Sunlit
Object was in daylight at epoch
Visualization orbit readout
Latitude
Unknown
Longitude
Unknown
Altitude
Unknown
Speed
Unknown
Apparent Right ascension
Unknown
Apparent Declination
Unknown
Sunlit
N/A
Visualization observer readout
Local Sidereal Time
18:28:29
Azimuth
Unknown
Elevation
Unknown
Doppler factor
Unknown
Orbital elements
Apogee altitude
471.816 km
Perigee altitude
470.182 km
Semi-major axis
6,849.136 km
Eccentricity
0.00012
Inclination
53.1593°
RAAN
148.8394°
Arg. of periapsis
86.5263°
True anomaly
273.57386°
Mean anomaly
273.5875°
Eccentric anomaly
273.58068°
Mean motion
3.82904 °/min
Orbital period
94.02 mins
BSTAR
0.00003317
Loading maneuver chart data...
Computing Atmospheric mass density...
Loading historical data...
Loading historical data...
Loading historical data...
Loading historical data...
Loading historical data...
Loading historical data...
Loading historical data...

Documentation

Showing up to 5 results
|